Погода в Тромсё

Норвегия     69°39′17″N   18°57′46″E
темп.,
°C
ветер,
м/с
пор.,
м/с
влажн.,
%
обл.,
%
осадки,
мм/ч
давл.,
гПа
погр.,
м
17 августа, ср
ср1723:00+14в329040 0.0 100721
02:00+13в4388100 0.0 100327
05:00+14вюв438793 0.0 99925
08:00+13сз3398100 0.1 1000110
11:00+10з47100100 8.5 1005431
14:00+9зсз4898100 17.3 1009590
17:00+7зсз3694100 9.5 1011535
20:00+7юз2589100 15.2 1012543
18 августа, чт
чт1823:00+8ююз4588100 1.4 1013396
02:00+8ююз4588100 1.6 1014325
05:00+8юз368895 0.4 1015512
08:00+9зюз588283 1.1 1018653
11:00+10з677551 0.4 1020767
14:00+10зсз2275100 0.6 1020391
17:00+10св127345 0.0 1020470
20:00+9в338199 0.0 1020142
19 августа, пт
пт1923:00+7в438291 0.0 101949
02:00+8вюв4379100 0.0 101834
05:00+8юв4478100 0.0 101747
08:00+11ююв4573100 0.0 1016145
11:00+12ю4674100 0.0 1016189
14:00+15ю44656 0.0 1015314
17:00+16ююв226412 0.0 1014365
20:00+14юв227593 0.0 101411
20 августа, сб
сб2023:00+12юв338164 0.0 101415
02:00+12юв338283 0.0 101316
05:00+12юв338052 0.0 101214
08:00+14юв3382100 0.3 101127
11:00+14вюв3386100 0.5 100826
14:00+14зсз3393100 0.6 100859
17:00+13зсз1196100 0.3 1009118
20:00+13зюз11100100 2.8 100928
21 августа, вс
вс2123:00+13св22100100 5.4 100822
02:00+12зюз00100100 13.2 100725
05:00+12ююв12100100 8.1 100625
08:00+12зюз1199100 15.5 100519
11:00+12вюв1199100 2.9 100638
14:00+15в2288100 2.9 1005222
17:00+15всв3386100 0.0 1005137
20:00+15в3389100 0.2 100524